Regional Weather Roundup
Issued by NWS

Home | Current Version | Previous Version | Graphics & Text | Print | Product List | Glossary On
Versions: 1 2 3 4 5 6 7 8 9 10 11 12 13 14 15 16 17 18 19 20 21 22 23 24 25 26 27 28 29 30 31 32 33 34 35 36 37 38 39 40 41 42 43 44 45 46 47 48 49 50
000
ASUS43 KFSD 060402
RWRSD

WEATHER ROUNDUP FOR SOUTH DAKOTA
NATIONAL WEATHER SERVICE SIOUX FALLS SD
1100 PM CDT SUN JUL 05 2015

NOTE: "FAIR" INDICATES FEW OR NO CLOUDS BELOW 12,000 FEET WITH NO
SIGNIFICANT WEATHER AND/OR OBSTRUCTIONS TO VISIBILITY.


SDZ001>005-009-010-012>017-060500-
NORTHWEST AND NORTH CENTRAL SOUTH DAKOTA

CITY           SKY/WX    TMP DP  RH WIND       PRES   REMARKS
BUFFALO          N/A     62  56  80 NW8       30.03R
FAITH            N/A     62  59  90 N10       30.02R
MOBRIDGE       LGT RAIN  67  63  87 N10       29.92R FOG
$$

SDZ012>016-024>037-041>051-057-063-072>074-060500-
SOUTHWEST AND SOUTH CENTRAL SOUTH DAKOTA

CITY           SKY/WX    TMP DP  RH WIND       PRES   REMARKS
RAPID CTY ARPT LGT RAIN  62  60  93 N16G24    30.07R FOG
PIERRE         LGT RAIN  68  65  90 N16       29.90R
CUSTER         CLOUDY    57  54  89 N7        30.13R
ELLSWORTH AFB  LGT RAIN  61  61 100 N15       30.06
PHILIP         RAIN      65  63  93 N10       29.98R FOG
PINE RIDGE     RAIN      63  60  90 N14G25    30.01R FOG
WINNER         LGT RAIN  69  65  86 N36G52    29.77F
$$

SDZ004>011-016>023-039-040-060500-
NORTHEAST SOUTH DAKOTA

CITY           SKY/WX    TMP DP  RH WIND       PRES   REMARKS
ABERDEEN       CLOUDY    73  65  75 N12       29.88R
WATERTOWN      LGT RAIN  68  66  93 N8        29.86S
BROOKINGS      CLOUDY    70  63  78 N30G38    29.84S THUNDER
SISSETON         N/A     72  67  84 N7        29.88R
$$

SDZ017-020-022-023-036>040-048>070-060500-
SOUTHEAST SOUTH DAKOTA

CITY           SKY/WX    TMP DP  RH WIND       PRES   REMARKS
SIOUX FALLS    CLOUDY    80  73  79 S12       29.75F
HURON          LGT RAIN  73  68  84 N16       29.81R
MITCHELL       LGT RAIN  77  70  79 N16G30    29.75S
YANKTON        CLOUDY    79  73  83 E7        29.74R
$$

ABBREVIATIONS USED IN REMARKS
   TC - TEMPERATURE IN CELSIUS
  WCI - WIND CHILL INDEX
   HX - HEAT INDEX
  VSB - VISIBILITY



USA.gov is the U.S. government's official web portal to all federal, state and local government web resources and services.